"datetime","temp","dp","rain_mm","uv","solar","mb","wind_mph","gust_mph","windchill","rh"
"2020-12-24 00:00:00",7.7,6.8,0.0,0.0,0,1005.5,3,7,5.7,94
"2020-12-24 00:01:00",7.7,6.8,0.0,0.0,0,1005.6,3,5,6.3,94
"2020-12-24 00:02:00",7.7,6.8,0.0,0.0,0,1005.7,3,7,5.7,94
"2020-12-24 00:03:00",7.6,6.7,0.0,0.0,0,1005.6,4,6,6.0,94
"2020-12-24 00:04:00",7.6,6.7,0.0,0.0,0,1005.7,2,3,"",94
"2020-12-24 00:05:00",7.6,6.7,0.0,0.0,0,1005.8,2,4,6.6,94
"2020-12-24 00:06:00",7.6,6.7,0.0,0.0,0,1005.8,1,3,"",94
"2020-12-24 00:07:00",7.6,6.7,0.0,0.0,0,1005.8,2,6,5.8,94
"2020-12-24 00:08:00",7.6,6.7,0.0,0.0,0,1005.8,3,5,6.2,94
"2020-12-24 00:09:00",7.6,6.7,0.0,0.0,0,1005.9,2,3,"",94
"2020-12-24 00:10:00",7.6,6.7,0.0,0.0,0,1005.9,2,5,6.2,94
"2020-12-24 00:11:00",7.6,6.7,0.2,0.0,0,1006.0,3,5,6.2,94
"2020-12-24 00:12:00",7.6,6.7,0.2,0.0,0,1006.0,3,6,5.8,94
"2020-12-24 00:13:00",7.5,6.6,0.2,0.0,0,1006.1,2,6,5.7,94
"2020-12-24 00:14:00",7.5,6.6,0.2,0.0,0,1006.1,3,4,6.5,94
"2020-12-24 00:15:00",7.5,6.6,0.2,0.0,0,1006.1,4,7,5.4,94
"2020-12-24 00:16:00",7.5,6.6,0.2,0.0,0,1006.1,3,5,5.9,94
"2020-12-24 00:17:00",7.4,6.5,0.2,0.0,0,1006.2,2,4,6.4,94
"2020-12-24 00:18:00",7.4,6.5,0.2,0.0,0,1006.2,2,4,6.4,94
"2020-12-24 00:19:00",7.4,6.5,0.2,0.0,0,1006.2,2,3,"",94
"2020-12-24 00:20:00",7.4,6.5,0.2,0.0,0,1006.3,2,3,"",94
"2020-12-24 00:21:00",7.4,6.5,0.2,0.0,0,1006.3,2,4,6.4,94
"2020-12-24 00:22:00",7.4,6.5,0.2,0.0,0,1006.3,4,8,5.0,94
"2020-12-24 00:23:00",7.3,6.4,0.2,0.0,0,1006.4,3,9,4.7,94
"2020-12-24 00:24:00",7.3,6.4,0.2,0.0,0,1006.4,2,4,6.2,94
"2020-12-24 00:25:00",7.3,6.4,0.2,0.0,0,1006.4,2,3,"",94
"2020-12-24 00:26:00",7.3,6.4,0.2,0.0,0,1006.5,3,7,5.2,94
"2020-12-24 00:27:00",7.3,6.4,0.2,0.0,0,1006.5,2,3,"",94
"2020-12-24 00:28:00",7.3,6.4,0.2,0.0,0,1006.7,5,10,4.4,94
"2020-12-24 00:29:00",7.3,6.4,0.2,0.0,0,1006.6,6,10,4.4,94
"2020-12-24 00:30:00",7.2,6.3,0.2,0.0,0,1006.5,3,5,5.7,94
"2020-12-24 00:31:00",7.2,6.3,0.2,0.0,0,1006.6,4,8,4.8,94
"2020-12-24 00:32:00",7.2,6.3,0.2,0.0,0,1006.6,3,5,5.7,94
"2020-12-24 00:33:00",7.2,6.3,0.2,0.0,0,1006.7,2,4,6.1,94
"2020-12-24 00:34:00",7.1,6.2,0.2,0.0,0,1006.8,3,6,5.4,94
"2020-12-24 00:35:00",7.1,6.2,0.2,0.0,0,1006.8,2,4,6.0,94
"2020-12-24 00:36:00",7.1,6.2,0.2,0.0,0,1006.8,2,4,6.0,94
"2020-12-24 00:37:00",7.1,6.2,0.2,0.0,0,1006.9,3,9,4.4,94
"2020-12-24 00:38:00",7.1,6.2,0.2,0.0,0,1007.0,3,6,5.2,94
"2020-12-24 00:39:00",7.1,6.2,0.2,0.0,0,1006.9,2,4,6.0,94
"2020-12-24 00:40:00",7.1,6.2,0.2,0.0,0,1007.0,2,4,6.0,94
"2020-12-24 00:41:00",7.1,6.2,0.2,0.0,0,1007.1,3,7,4.9,94
"2020-12-24 00:42:00",7.0,6.1,0.2,0.0,0,1007.0,2,4,5.9,94
"2020-12-24 00:43:00",7.0,6.1,0.2,0.0,0,1007.1,2,4,5.9,94
"2020-12-24 00:44:00",7.0,6.1,0.4,0.0,0,1007.2,3,5,5.4,94
"2020-12-24 00:45:00",6.9,6.0,0.4,0.0,0,1007.3,4,8,4.4,94
"2020-12-24 00:46:00",6.9,6.0,0.4,0.0,0,1007.2,4,8,4.4,94
"2020-12-24 00:47:00",6.9,6.0,0.4,0.0,0,1007.2,2,6,5.0,94
"2020-12-24 00:48:00",6.9,6.0,0.4,0.0,0,1007.3,3,7,4.7,94
"2020-12-24 00:49:00",6.9,6.0,0.4,0.0,0,1007.3,3,9,4.2,94
"2020-12-24 00:50:00",6.8,5.9,0.4,0.0,0,1007.4,3,7,4.7,94
"2020-12-24 00:51:00",6.8,5.9,0.4,0.0,0,1007.4,2,4,5.7,94
"2020-12-24 00:52:00",6.8,5.9,0.4,0.0,0,1007.4,3,6,4.9,94
"2020-12-24 00:53:00",6.8,5.9,0.4,0.0,0,1007.5,4,9,4.0,94
"2020-12-24 00:54:00",6.8,5.9,0.6,0.0,0,1007.6,2,7,4.6,94
"2020-12-24 00:55:00",6.8,5.9,0.6,0.0,0,1007.6,2,5,5.2,94
"2020-12-24 00:56:00",6.8,5.9,0.6,0.0,0,1007.6,3,7,4.6,94
"2020-12-24 00:57:00",6.8,5.9,0.6,0.0,0,1007.6,2,4,5.7,94
"2020-12-24 00:58:00",6.7,5.8,0.6,0.0,0,1007.6,3,7,4.4,94
"2020-12-24 00:59:00",6.7,5.8,0.6,0.0,0,1007.7,3,5,5.1,94
"2020-12-24 01:00:00",6.7,5.8,0.6,0.0,0,1007.7,3,6,4.8,94
"2020-12-24 01:01:00",6.7,5.8,0.6,0.0,0,1007.7,4,7,4.4,94
"2020-12-24 01:02:00",6.7,5.8,0.6,0.0,0,1007.7,3,5,5.1,94
"2020-12-24 01:03:00",6.7,5.8,0.6,0.0,0,1007.8,3,5,5.1,94
"2020-12-24 01:04:00",6.7,5.8,0.6,0.0,0,1007.8,2,4,5.5,94
"2020-12-24 01:05:00",6.7,5.8,0.6,0.0,0,1008.0,3,5,5.1,94
"2020-12-24 01:06:00",6.7,5.8,0.6,0.0,0,1007.9,3,7,4.4,94
"2020-12-24 01:07:00",6.7,5.8,0.6,0.0,0,1007.9,3,5,5.1,94
"2020-12-24 01:08:00",6.6,5.7,0.6,0.0,0,1008.0,3,4,5.4,94
"2020-12-24 01:09:00",6.6,5.7,0.6,0.0,0,1008.1,2,3,"",94
"2020-12-24 01:10:00",6.6,5.7,0.6,0.0,0,1008.1,2,3,"",94
"2020-12-24 01:11:00",6.6,5.7,0.6,0.0,0,1008.2,2,4,5.4,94
"2020-12-24 01:12:00",6.6,5.7,0.6,0.0,0,1008.2,1,3,"",94
"2020-12-24 01:13:00",6.6,5.7,0.6,0.0,0,1008.2,2,4,5.4,94
"2020-12-24 01:14:00",6.6,5.7,0.6,0.0,0,1008.3,2,4,5.4,94
"2020-12-24 01:15:00",6.6,5.7,0.6,0.0,0,1008.3,2,4,5.4,94
"2020-12-24 01:16:00",6.6,5.7,0.6,0.0,0,1008.3,3,7,4.3,94
"2020-12-24 01:17:00",6.6,5.7,0.6,0.0,0,1008.4,3,4,5.4,94
"2020-12-24 01:18:00",6.6,5.7,0.6,0.0,0,1008.4,3,8,4.0,94
"2020-12-24 01:19:00",6.6,5.7,0.8,0.0,0,1008.4,2,3,"",94
"2020-12-24 01:20:00",6.6,5.7,0.8,0.0,0,1008.4,3,4,5.4,94
"2020-12-24 01:21:00",6.6,5.7,0.8,0.0,0,1008.4,3,6,4.6,94
"2020-12-24 01:22:00",6.6,5.7,0.8,0.0,0,1008.4,2,4,5.4,94
"2020-12-24 01:23:00",6.6,5.7,0.8,0.0,0,1008.5,2,4,5.4,94
"2020-12-24 01:24:00",6.5,5.6,0.8,0.0,0,1008.5,2,5,5.0,94
"2020-12-24 01:25:00",6.5,5.6,0.8,0.0,0,1008.6,2,4,5.3,94
"2020-12-24 01:26:00",6.5,5.6,0.8,0.0,0,1008.6,3,5,4.9,94
"2020-12-24 01:27:00",6.5,5.6,0.8,0.0,0,1008.6,1,3,"",94
"2020-12-24 01:28:00",6.5,5.6,0.8,0.0,0,1008.7,3,6,4.5,94
"2020-12-24 01:29:00",6.5,5.6,0.8,0.0,0,1008.7,5,9,3.7,94
"2020-12-24 01:30:00",6.5,5.6,0.8,0.0,0,1008.8,4,7,4.2,94
"2020-12-24 01:31:00",6.5,5.6,0.8,0.0,0,1008.7,3,5,4.9,94
"2020-12-24 01:32:00",6.5,5.6,0.8,0.0,0,1008.8,3,6,4.5,94
"2020-12-24 01:33:00",6.5,5.6,0.8,0.0,0,1008.8,3,5,4.9,94
"2020-12-24 01:34:00",6.5,5.6,0.8,0.0,0,1008.8,3,9,3.7,94
"2020-12-24 01:35:00",6.5,5.6,0.8,0.0,0,1008.8,3,8,3.9,94
"2020-12-24 01:36:00",6.5,5.6,0.8,0.0,0,1008.8,3,6,4.5,94
"2020-12-24 01:37:00",6.5,5.6,0.8,0.0,0,1008.9,3,6,4.5,94
"2020-12-24 01:38:00",6.5,5.6,0.8,0.0,0,1008.9,3,5,4.9,94
"2020-12-24 01:39:00",6.5,5.6,0.8,0.0,0,1008.9,3,4,5.3,94
"2020-12-24 01:40:00",6.5,5.6,0.8,0.0,0,1009.0,3,4,5.3,94
"2020-12-24 01:41:00",6.5,5.6,0.8,0.0,0,1009.0,2,4,5.3,94
"2020-12-24 01:42:00",6.5,5.6,0.8,0.0,0,1009.1,3,7,4.2,94
"2020-12-24 01:43:00",6.5,5.6,0.8,0.0,0,1009.1,3,5,4.9,94
"2020-12-24 01:44:00",6.5,5.6,0.8,0.0,0,1009.1,3,5,4.9,94
"2020-12-24 01:45:00",6.4,5.5,0.8,0.0,0,1009.3,3,5,4.8,94
"2020-12-24 01:46:00",6.4,5.5,0.8,0.0,0,1009.2,2,4,5.3,94
"2020-12-24 01:47:00",6.4,5.5,0.8,0.0,0,1009.3,3,5,4.9,94
"2020-12-24 01:48:00",6.5,5.6,0.8,0.0,0,1009.3,2,3,"",94
"2020-12-24 01:49:00",6.4,5.5,0.8,0.0,0,1009.4,2,4,5.2,94
"2020-12-24 01:50:00",6.4,5.5,0.8,0.0,0,1009.4,1,6,4.4,94
"2020-12-24 01:51:00",6.4,5.5,0.8,0.0,0,1009.4,3,6,4.4,94
"2020-12-24 01:52:00",6.4,5.5,1.0,0.0,0,1009.5,2,4,5.2,94
"2020-12-24 01:53:00",6.4,5.5,1.0,0.0,0,1009.4,3,5,4.8,94
"2020-12-24 01:54:00",6.4,5.5,1.0,0.0,0,1009.5,2,5,4.8,94
"2020-12-24 01:55:00",6.4,5.5,1.0,0.0,0,1009.6,2,5,4.8,94
"2020-12-24 01:56:00",6.4,5.5,1.0,0.0,0,1009.5,3,5,4.8,94
"2020-12-24 01:57:00",6.4,5.5,1.0,0.0,0,1009.6,3,4,5.2,94
"2020-12-24 01:58:00",6.4,5.5,1.0,0.0,0,1009.7,4,8,3.8,94
"2020-12-24 01:59:00",6.4,5.5,1.0,0.0,0,1009.6,3,5,4.8,94
"2020-12-24 02:00:00",6.4,5.5,1.0,0.0,0,1009.6,4,8,3.8,94
"2020-12-24 02:01:00",6.3,5.4,1.0,0.0,0,1009.7,4,7,4.0,94
"2020-12-24 02:02:00",6.3,5.4,1.0,0.0,0,1009.6,3,7,4.0,94
"2020-12-24 02:03:00",6.3,5.4,1.0,0.0,0,1009.7,3,11,3.0,94
"2020-12-24 02:04:00",6.3,5.4,1.0,0.0,0,1009.7,5,12,2.8,94
"2020-12-24 02:05:00",6.3,5.4,1.0,0.0,0,1009.7,4,7,4.0,94
"2020-12-24 02:06:00",6.3,5.4,1.0,0.0,0,1009.8,3,5,4.6,94
"2020-12-24 02:07:00",6.3,5.4,1.0,0.0,0,1009.8,3,5,4.6,94
"2020-12-24 02:08:00",6.3,5.4,1.0,0.0,0,1009.8,2,3,"",94
"2020-12-24 02:09:00",6.3,5.4,1.0,0.0,0,1009.9,3,5,4.6,94
"2020-12-24 02:10:00",6.3,5.4,1.0,0.0,0,1009.8,2,3,"",94
"2020-12-24 02:11:00",6.3,5.4,1.0,0.0,0,1009.9,4,7,4.0,94
"2020-12-24 02:12:00",6.2,5.3,1.0,0.0,0,1010.0,3,5,4.6,94
"2020-12-24 02:13:00",6.3,5.4,1.0,0.0,0,1010.0,2,5,4.6,94
"2020-12-24 02:14:00",6.3,5.4,1.0,0.0,0,1010.0,2,4,5.0,94
"2020-12-24 02:15:00",6.2,5.3,1.0,0.0,0,1010.1,2,4,5.1,94
"2020-12-24 02:16:00",6.3,5.4,1.0,0.0,0,1010.2,2,4,5.0,94
"2020-12-24 02:17:00",6.2,5.3,1.0,0.0,0,1010.1,3,5,4.5,94
"2020-12-24 02:18:00",6.2,5.3,1.0,0.0,0,1010.2,3,6,4.2,94
"2020-12-24 02:19:00",6.2,5.3,1.0,0.0,0,1010.2,2,5,4.5,94
"2020-12-24 02:20:00",6.2,5.3,1.0,0.0,0,1010.2,2,4,5.0,94
"2020-12-24 02:21:00",6.2,5.3,1.0,0.0,0,1010.2,3,6,4.2,94
"2020-12-24 02:22:00",6.2,5.3,1.0,0.0,0,1010.3,2,4,5.0,94
"2020-12-24 02:23:00",6.2,5.3,1.0,0.0,0,1010.3,3,5,4.5,94
"2020-12-24 02:24:00",6.2,5.3,1.0,0.0,0,1010.3,3,5,4.5,94
"2020-12-24 02:25:00",6.2,5.3,1.0,0.0,0,1010.3,3,5,4.5,94
"2020-12-24 02:26:00",6.2,5.3,1.0,0.0,0,1010.4,2,5,4.5,94
"2020-12-24 02:27:00",6.2,5.3,1.0,0.0,0,1010.3,2,4,5.0,94
"2020-12-24 02:28:00",6.2,5.3,1.0,0.0,0,1010.3,2,4,5.0,94
"2020-12-24 02:29:00",6.2,5.3,1.0,0.0,0,1010.3,2,3,"",94
"2020-12-24 02:30:00",6.2,5.3,1.0,0.0,0,1010.4,3,5,4.5,94
"2020-12-24 02:31:00",6.2,5.3,1.0,0.0,0,1010.4,2,4,5.0,94
"2020-12-24 02:32:00",6.2,5.3,1.0,0.0,0,1010.4,2,3,"",94
"2020-12-24 02:33:00",6.2,5.3,1.0,0.0,0,1010.4,3,5,4.5,94
"2020-12-24 02:34:00",6.2,5.3,1.0,0.0,0,1010.5,3,4,5.0,94
"2020-12-24 02:35:00",6.2,5.3,1.0,0.0,0,1010.5,3,5,4.5,94
"2020-12-24 02:36:00",6.2,5.3,1.0,0.0,0,1010.6,2,4,5.0,94
"2020-12-24 02:37:00",6.2,5.3,1.0,0.0,0,1010.5,2,4,5.0,94
"2020-12-24 02:38:00",6.2,5.3,1.0,0.0,0,1010.5,3,6,4.2,94
"2020-12-24 02:39:00",6.2,5.3,1.0,0.0,0,1010.7,3,5,4.5,94
"2020-12-24 02:40:00",6.2,5.3,1.0,0.0,0,1010.7,3,4,5.0,94
"2020-12-24 02:41:00",6.2,5.3,1.0,0.0,0,1010.7,2,3,"",94
"2020-12-24 02:42:00",6.2,5.3,1.0,0.0,0,1010.8,2,4,5.0,94
"2020-12-24 02:43:00",6.2,5.3,1.0,0.0,0,1010.9,2,3,"",94
"2020-12-24 02:44:00",6.2,5.3,1.0,0.0,0,1010.9,3,5,4.5,94
"2020-12-24 02:45:00",6.2,5.3,1.0,0.0,0,1010.9,2,3,"",94
"2020-12-24 02:46:00",6.2,5.3,1.0,0.0,0,1010.9,2,4,5.0,94
"2020-12-24 02:47:00",6.2,5.3,1.0,0.0,0,1011.0,4,7,3.8,94
"2020-12-24 02:48:00",6.2,5.3,1.0,0.0,0,1011.0,3,4,5.0,94
"2020-12-24 02:49:00",6.2,5.3,1.0,0.0,0,1011.0,3,7,3.8,94
"2020-12-24 02:50:00",6.2,5.3,1.0,0.0,0,1011.1,2,3,"",94
"2020-12-24 02:51:00",6.2,5.3,1.0,0.0,0,1011.1,2,3,"",94
"2020-12-24 02:52:00",6.2,5.3,1.0,0.0,0,1011.1,2,2,"",94
"2020-12-24 02:53:00",6.2,5.3,1.0,0.0,0,1011.2,2,3,"",94
"2020-12-24 02:54:00",6.2,5.3,1.0,0.0,0,1011.3,3,5,4.5,94
"2020-12-24 02:55:00",6.3,5.4,1.0,0.0,0,1011.3,3,6,4.2,94
"2020-12-24 02:56:00",6.2,5.3,1.0,0.0,0,1011.4,3,5,4.5,94
"2020-12-24 02:57:00",6.3,5.4,1.0,0.0,0,1011.4,3,6,4.3,94
"2020-12-24 02:58:00",6.2,5.3,1.0,0.0,0,1011.3,3,5,4.5,94
"2020-12-24 02:59:00",6.3,5.4,1.0,0.0,0,1011.4,2,4,5.0,94
"2020-12-24 03:00:00",6.3,5.4,1.0,0.0,0,1011.4,2,4,5.1,94
"2020-12-24 03:01:00",6.2,5.3,1.0,0.0,0,1011.4,2,4,5.1,94
"2020-12-24 03:02:00",6.2,5.3,1.0,0.0,0,1011.5,2,4,5.0,94
"2020-12-24 03:03:00",6.3,5.4,1.0,0.0,0,1011.5,2,4,5.0,94
"2020-12-24 03:04:00",6.3,5.4,1.0,0.0,0,1011.6,2,3,"",94
"2020-12-24 03:05:00",6.2,5.3,1.0,0.0,0,1011.7,2,3,"",94
"2020-12-24 03:06:00",6.2,5.3,1.0,0.0,0,1011.7,2,4,5.1,94
"2020-12-24 03:07:00",6.2,5.3,1.0,0.0,0,1011.7,3,4,5.1,94
"2020-12-24 03:08:00",6.3,5.4,1.0,0.0,0,1011.8,3,5,4.6,94
"2020-12-24 03:09:00",6.3,5.4,1.0,0.0,0,1011.8,2,4,5.0,94
"2020-12-24 03:10:00",6.3,5.4,1.0,0.0,0,1011.9,3,5,4.6,94
"2020-12-24 03:11:00",6.3,5.4,1.0,0.0,0,1011.9,1,2,"",94
"2020-12-24 03:12:00",6.3,5.4,1.0,0.0,0,1011.9,2,3,"",94
"2020-12-24 03:13:00",6.3,5.4,1.0,0.0,0,1011.9,2,5,4.6,94
"2020-12-24 03:14:00",6.3,5.4,1.0,0.0,0,1012.0,2,4,5.1,94
"2020-12-24 03:15:00",6.3,5.4,1.0,0.0,0,1012.0,1,3,"",94
"2020-12-24 03:16:00",6.3,5.4,1.0,0.0,0,1012.0,2,4,5.1,94
"2020-12-24 03:17:00",6.3,5.4,1.0,0.0,0,1012.0,2,3,"",94
"2020-12-24 03:18:00",6.3,5.4,1.0,0.0,0,1012.1,1,3,"",94
"2020-12-24 03:19:00",6.3,5.4,1.0,0.0,0,1012.0,1,3,"",94
"2020-12-24 03:20:00",6.3,5.4,1.0,0.0,0,1012.1,3,6,4.3,94
"2020-12-24 03:21:00",6.3,5.4,1.0,0.0,0,1012.1,3,7,4.0,94
"2020-12-24 03:22:00",6.3,5.4,1.0,0.0,0,1012.1,1,2,"",94
"2020-12-24 03:23:00",6.3,5.4,1.0,0.0,0,1012.1,1,2,"",94
"2020-12-24 03:24:00",6.3,5.4,1.0,0.0,0,1012.2,2,3,"",94
"2020-12-24 03:25:00",6.3,5.4,1.0,0.0,0,1012.2,1,3,"",94
"2020-12-24 03:26:00",6.3,5.4,1.0,0.0,0,1012.2,2,3,"",94
"2020-12-24 03:27:00",6.3,5.4,1.0,0.0,0,1012.1,1,2,"",94
"2020-12-24 03:28:00",6.3,5.4,1.0,0.0,0,1012.1,2,3,"",94
"2020-12-24 03:29:00",6.3,5.4,1.0,0.0,0,1012.1,1,2,"",94
"2020-12-24 03:30:00",6.3,5.4,1.0,0.0,0,1012.1,2,4,5.1,94
"2020-12-24 03:31:00",6.3,5.4,1.0,0.0,0,1012.1,3,7,4.0,94
"2020-12-24 03:32:00",6.3,5.4,1.0,0.0,0,1012.1,3,6,4.3,94
"2020-12-24 03:33:00",6.3,5.4,1.0,0.0,0,1012.1,2,5,4.6,94
"2020-12-24 03:34:00",6.3,5.4,1.0,0.0,0,1012.2,2,3,"",94
"2020-12-24 03:35:00",6.3,5.4,1.0,0.0,0,1012.3,3,6,4.3,94
"2020-12-24 03:36:00",6.3,5.4,1.0,0.0,0,1012.3,2,3,"",94
"2020-12-24 03:37:00",6.3,5.4,1.0,0.0,0,1012.3,2,3,"",94
"2020-12-24 03:38:00",6.3,5.4,1.0,0.0,0,1012.2,2,5,4.6,94
"2020-12-24 03:39:00",6.3,5.4,1.2,0.0,0,1012.2,3,5,4.6,94
"2020-12-24 03:40:00",6.3,5.4,1.2,0.0,0,1012.2,4,7,4.0,94
"2020-12-24 03:41:00",6.3,5.4,1.2,0.0,0,1012.2,2,4,5.1,94
"2020-12-24 03:42:00",6.3,5.4,1.2,0.0,0,1012.2,2,7,4.0,94
"2020-12-24 03:43:00",6.3,5.4,1.2,0.0,0,1012.2,3,5,4.6,94
"2020-12-24 03:44:00",6.3,5.4,1.2,0.0,0,1012.2,3,6,4.3,94
"2020-12-24 03:45:00",6.3,5.4,1.2,0.0,0,1012.2,2,6,4.3,94
"2020-12-24 03:46:00",6.3,5.4,1.2,0.0,0,1012.1,2,5,4.6,94
"2020-12-24 03:47:00",6.3,5.4,1.2,0.0,0,1012.2,1,3,"",94
"2020-12-24 03:48:00",6.3,5.4,1.2,0.0,0,1012.3,2,4,5.1,94
"2020-12-24 03:49:00",6.3,5.4,1.2,0.0,0,1012.3,2,4,5.1,94
"2020-12-24 03:50:00",6.3,5.4,1.2,0.0,0,1012.2,4,8,3.7,94
"2020-12-24 03:51:00",6.3,5.4,1.2,0.0,0,1012.3,1,2,"",94
"2020-12-24 03:52:00",6.3,5.4,1.2,0.0,0,1012.3,1,3,"",94
"2020-12-24 03:53:00",6.3,5.4,1.2,0.0,0,1012.3,3,9,3.4,94
"2020-12-24 03:54:00",6.3,5.4,1.2,0.0,0,1012.4,2,4,5.1,94
"2020-12-24 03:55:00",6.3,5.4,1.2,0.0,0,1012.3,3,7,4.0,94
"2020-12-24 03:56:00",6.3,5.4,1.2,0.0,0,1012.4,1,3,"",94
"2020-12-24 03:57:00",6.3,5.4,1.2,0.0,0,1012.4,2,3,"",94
"2020-12-24 03:58:00",6.3,5.4,1.2,0.0,0,1012.4,2,3,"",94
"2020-12-24 03:59:00",6.3,5.4,1.2,0.0,0,1012.5,1,3,"",94
"2020-12-24 04:00:00",6.3,5.4,1.2,0.0,0,1012.4,2,4,5.1,94
"2020-12-24 04:01:00",6.3,5.4,1.2,0.0,0,1012.6,2,4,5.1,94
"2020-12-24 04:02:00",6.3,5.4,1.2,0.0,0,1012.5,2,3,"",94
"2020-12-24 04:03:00",6.3,5.4,1.2,0.0,0,1012.6,2,3,"",94
"2020-12-24 04:04:00",6.3,5.4,1.2,0.0,0,1012.5,2,3,"",94
"2020-12-24 04:05:00",6.3,5.4,1.2,0.0,0,1012.6,2,7,4.0,94
"2020-12-24 04:06:00",6.3,5.4,1.2,0.0,0,1012.6,2,6,4.3,94
"2020-12-24 04:07:00",6.3,5.4,1.2,0.0,0,1012.6,3,6,4.3,94
"2020-12-24 04:08:00",6.3,5.4,1.2,0.0,0,1012.7,4,9,3.4,94
"2020-12-24 04:09:00",6.3,5.4,1.2,0.0,0,1012.7,2,4,5.1,94
"2020-12-24 04:10:00",6.3,5.4,1.2,0.0,0,1012.7,2,6,4.3,94
"2020-12-24 04:11:00",6.3,5.4,1.2,0.0,0,1012.8,3,5,4.6,94
"2020-12-24 04:12:00",6.3,5.4,1.2,0.0,0,1012.8,3,6,4.3,94
"2020-12-24 04:13:00",6.3,5.4,1.2,0.0,0,1012.9,2,4,5.1,94
"2020-12-24 04:14:00",6.3,5.4,1.2,0.0,0,1012.9,3,6,4.3,94
"2020-12-24 04:15:00",6.3,5.4,1.2,0.0,0,1013.0,3,5,4.6,94
"2020-12-24 04:16:00",6.3,5.4,1.2,0.0,0,1013.0,4,7,4.0,94
"2020-12-24 04:17:00",6.3,5.4,1.2,0.0,0,1013.1,3,8,3.7,94
"2020-12-24 04:18:00",6.3,5.4,1.2,0.0,0,1013.1,2,4,5.1,94
"2020-12-24 04:19:00",6.3,5.4,1.2,0.0,0,1013.0,1,2,"",94
"2020-12-24 04:20:00",6.3,5.4,1.2,0.0,0,1013.0,1,2,"",94
"2020-12-24 04:21:00",6.3,5.4,1.2,0.0,0,1013.0,3,4,5.1,94
"2020-12-24 04:22:00",6.3,5.4,1.2,0.0,0,1013.0,2,4,5.1,94
"2020-12-24 04:23:00",6.3,5.4,1.2,0.0,0,1013.0,2,3,"",94
"2020-12-24 04:24:00",6.4,5.5,1.2,0.0,0,1013.0,2,5,4.6,94
"2020-12-24 04:25:00",6.3,5.4,1.2,0.0,0,1013.1,2,4,5.1,94
"2020-12-24 04:26:00",6.3,5.4,1.2,0.0,0,1013.1,3,5,4.6,94
"2020-12-24 04:27:00",6.3,5.4,1.2,0.0,0,1013.2,2,4,5.1,94
"2020-12-24 04:28:00",6.3,5.4,1.2,0.0,0,1013.1,2,4,5.1,94
"2020-12-24 04:29:00",6.3,5.4,1.2,0.0,0,1013.2,1,3,"",94
"2020-12-24 04:30:00",6.3,5.4,1.2,0.0,0,1013.1,2,5,4.6,94
"2020-12-24 04:31:00",6.3,5.4,1.2,0.0,0,1013.1,2,4,5.1,94
"2020-12-24 04:32:00",6.3,5.4,1.2,0.0,0,1013.1,2,3,"",94
"2020-12-24 04:33:00",6.3,5.4,1.2,0.0,0,1013.1,1,3,"",94
"2020-12-24 04:34:00",6.3,5.4,1.2,0.0,0,1013.1,2,4,5.1,94
"2020-12-24 04:35:00",6.3,5.4,1.2,0.0,0,1013.1,2,4,5.1,94
"2020-12-24 04:36:00",6.3,5.4,1.2,0.0,0,1013.2,2,4,5.1,94
"2020-12-24 04:37:00",6.3,5.4,1.2,0.0,0,1013.2,2,4,5.1,94
"2020-12-24 04:38:00",6.3,5.4,1.2,0.0,0,1013.2,1,2,"",94
"2020-12-24 04:39:00",6.3,5.4,1.2,0.0,0,1013.2,2,4,5.1,94
"2020-12-24 04:40:00",6.3,5.4,1.2,0.0,0,1013.4,2,4,5.1,94
"2020-12-24 04:41:00",6.3,5.4,1.2,0.0,0,1013.4,2,5,4.6,94
"2020-12-24 04:42:00",6.3,5.4,1.2,0.0,0,1013.4,3,8,3.7,94
"2020-12-24 04:43:00",6.3,5.4,1.2,0.0,0,1013.5,4,9,3.4,94
"2020-12-24 04:44:00",6.3,5.4,1.2,0.0,0,1013.6,2,4,5.1,94
"2020-12-24 04:45:00",6.3,5.4,1.2,0.0,0,1013.6,2,3,"",94
"2020-12-24 04:46:00",6.3,5.4,1.2,0.0,0,1013.7,3,7,4.0,94
"2020-12-24 04:47:00",6.3,5.4,1.2,0.0,0,1013.8,1,3,"",94
"2020-12-24 04:48:00",6.3,5.4,1.2,0.0,0,1013.9,1,3,"",94
"2020-12-24 04:49:00",6.3,5.4,1.2,0.0,0,1013.9,2,3,"",94
"2020-12-24 04:50:00",6.3,5.4,1.2,0.0,0,1013.9,2,3,"",94
"2020-12-24 04:51:00",6.3,5.4,1.2,0.0,0,1014.0,2,4,5.1,94
"2020-12-24 04:52:00",6.3,5.4,1.2,0.0,0,1014.1,3,5,4.6,94
"2020-12-24 04:53:00",6.3,5.4,1.2,0.0,0,1014.1,3,5,4.6,94
"2020-12-24 04:54:00",6.3,5.4,1.2,0.0,0,1014.1,2,3,"",94
"2020-12-24 04:55:00",6.3,5.4,1.2,0.0,0,1014.1,2,3,"",94
"2020-12-24 04:56:00",6.3,5.4,1.2,0.0,0,1014.1,3,4,5.1,94
"2020-12-24 04:57:00",6.3,5.4,1.2,0.0,0,1014.1,2,3,"",94
"2020-12-24 04:58:00",6.3,5.4,1.2,0.0,0,1014.1,3,4,5.1,94
"2020-12-24 04:59:00",6.3,5.4,1.2,0.0,0,1014.2,3,5,4.6,94
"2020-12-24 05:00:00",6.3,5.4,1.2,0.0,0,1014.1,2,3,"",94
"2020-12-24 05:01:00",6.3,5.4,1.2,0.0,0,1014.1,3,6,4.3,94
"2020-12-24 05:02:00",6.3,5.4,1.2,0.0,0,1014.2,3,7,4.0,94
"2020-12-24 05:03:00",6.3,5.4,1.2,0.0,0,1014.1,3,7,4.0,94
"2020-12-24 05:04:00",6.3,5.4,1.2,0.0,0,1014.1,4,7,4.0,94
"2020-12-24 05:05:00",6.3,5.4,1.2,0.0,0,1014.1,3,5,4.5,94
"2020-12-24 05:06:00",6.2,5.3,1.2,0.0,0,1014.1,3,5,4.6,94
"2020-12-24 05:07:00",6.3,5.4,1.2,0.0,0,1014.1,3,7,3.8,94
"2020-12-24 05:08:00",6.2,5.3,1.2,0.0,0,1014.1,3,4,5.0,94
"2020-12-24 05:09:00",6.2,5.3,1.2,0.0,0,1014.1,2,4,5.0,94
"2020-12-24 05:10:00",6.2,5.3,1.2,0.0,0,1014.2,3,4,5.0,94
"2020-12-24 05:11:00",6.2,5.3,1.2,0.0,0,1014.2,4,12,2.8,94
"2020-12-24 05:12:00",6.2,5.3,1.2,0.0,0,1014.1,2,4,5.0,94
"2020-12-24 05:13:00",6.2,5.3,1.2,0.0,0,1014.2,3,6,4.2,94
"2020-12-24 05:14:00",6.2,5.3,1.2,0.0,0,1014.3,3,4,5.0,94
"2020-12-24 05:15:00",6.2,5.3,1.2,0.0,0,1014.3,3,7,3.8,94
"2020-12-24 05:16:00",6.2,5.3,1.2,0.0,0,1014.3,4,10,3.1,94
"2020-12-24 05:17:00",6.2,5.3,1.2,0.0,0,1014.3,3,5,4.5,94
"2020-12-24 05:18:00",6.2,5.3,1.2,0.0,0,1014.3,2,3,"",94
"2020-12-24 05:19:00",6.2,5.3,1.2,0.0,0,1014.4,2,4,5.0,94
"2020-12-24 05:20:00",6.2,5.3,1.2,0.0,0,1014.4,2,5,4.5,94
"2020-12-24 05:21:00",6.2,5.3,1.2,0.0,0,1014.5,2,5,4.5,94
"2020-12-24 05:22:00",6.2,5.3,1.2,0.0,0,1014.4,3,6,4.0,94
"2020-12-24 05:23:00",6.1,5.2,1.2,0.0,0,1014.5,2,3,"",94
"2020-12-24 05:24:00",6.1,5.2,1.2,0.0,0,1014.5,2,4,4.9,94
"2020-12-24 05:25:00",6.1,5.2,1.2,0.0,0,1014.6,2,4,4.9,94
"2020-12-24 05:26:00",6.1,5.2,1.2,0.0,0,1014.6,1,3,"",94
"2020-12-24 05:27:00",6.1,5.2,1.2,0.0,0,1014.6,2,5,4.4,94
"2020-12-24 05:28:00",6.1,5.2,1.2,0.0,0,1014.7,1,3,"",94
"2020-12-24 05:29:00",6.1,5.2,1.2,0.0,0,1014.7,2,4,4.9,94
"2020-12-24 05:30:00",6.1,5.2,1.2,0.0,0,1014.8,2,3,"",94
"2020-12-24 05:31:00",6.1,5.2,1.2,0.0,0,1014.9,1,2,"",94
"2020-12-24 05:32:00",6.1,5.2,1.2,0.0,0,1014.9,2,5,4.4,94
"2020-12-24 05:33:00",6.1,5.2,1.2,0.0,0,1014.9,1,2,"",94
"2020-12-24 05:34:00",6.1,5.2,1.2,0.0,0,1015.0,2,4,4.9,94
"2020-12-24 05:35:00",6.1,5.2,1.2,0.0,0,1015.0,1,3,"",94
"2020-12-24 05:36:00",6.1,5.2,1.2,0.0,0,1015.0,2,3,"",94
"2020-12-24 05:37:00",6.1,5.2,1.2,0.0,0,1015.1,2,4,4.9,94
"2020-12-24 05:38:00",6.1,5.2,1.2,0.0,0,1015.0,1,2,"",94
"2020-12-24 05:39:00",6.1,5.2,1.2,0.0,0,1015.1,2,4,4.9,94
"2020-12-24 05:40:00",6.1,5.2,1.2,0.0,0,1015.1,2,5,4.4,94
"2020-12-24 05:41:00",6.1,5.2,1.2,0.0,0,1015.1,2,4,4.9,94
"2020-12-24 05:42:00",6.1,5.2,1.2,0.0,0,1015.2,2,4,4.9,94
"2020-12-24 05:43:00",6.1,5.2,1.2,0.0,0,1015.1,2,4,4.9,94
"2020-12-24 05:44:00",6.1,5.2,1.2,0.0,0,1015.1,3,7,3.7,94
"2020-12-24 05:45:00",6.1,5.2,1.2,0.0,0,1015.2,3,4,4.7,94
"2020-12-24 05:46:00",6.0,5.1,1.2,0.0,0,1015.2,2,3,"",94
"2020-12-24 05:47:00",6.0,5.1,1.2,0.0,0,1015.2,1,2,"",94
"2020-12-24 05:48:00",6.0,5.1,1.2,0.0,0,1015.1,2,4,4.7,94
"2020-12-24 05:49:00",6.0,5.1,1.2,0.0,0,1015.1,3,4,4.7,94
"2020-12-24 05:50:00",6.0,5.1,1.2,0.0,0,1015.2,2,5,4.3,94
"2020-12-24 05:51:00",6.0,5.1,1.2,0.0,0,1015.3,2,4,4.6,94
"2020-12-24 05:52:00",5.9,5.0,1.2,0.0,0,1015.2,1,3,"",94
"2020-12-24 05:53:00",5.9,5.0,1.2,0.0,0,1015.4,2,4,4.6,94
"2020-12-24 05:54:00",5.9,5.0,1.2,0.0,0,1015.4,2,4,4.6,94
"2020-12-24 05:55:00",5.9,5.0,1.2,0.0,0,1015.4,2,3,"",94
"2020-12-24 05:56:00",5.9,5.0,1.2,0.0,0,1015.6,2,4,4.6,94
"2020-12-24 05:57:00",5.9,4.9,1.2,0.0,0,1015.5,1,2,"",93
"2020-12-24 05:58:00",5.9,4.9,1.2,0.0,0,1015.6,2,5,4.2,93
"2020-12-24 05:59:00",5.9,4.9,1.2,0.0,0,1015.6,1,2,"",93
"2020-12-24 06:00:00",5.9,4.9,1.2,0.0,0,1015.6,3,5,4.2,93
"2020-12-24 06:01:00",5.9,4.9,1.2,0.0,0,1015.7,2,4,4.6,93
"2020-12-24 06:02:00",5.9,4.9,1.2,0.0,0,1015.7,2,3,"",93
"2020-12-24 06:03:00",5.9,4.9,1.2,0.0,0,1015.9,4,8,3.2,93
"2020-12-24 06:04:00",5.8,4.8,1.2,0.0,0,1015.9,2,4,4.5,93
"2020-12-24 06:05:00",5.8,4.8,1.2,0.0,0,1015.9,2,3,"",93
"2020-12-24 06:06:00",5.8,4.8,1.2,0.0,0,1016.0,1,2,"",93
"2020-12-24 06:07:00",5.8,4.8,1.2,0.0,0,1016.0,1,2,"",93
"2020-12-24 06:08:00",5.8,4.8,1.2,0.0,0,1016.1,2,4,4.5,93
"2020-12-24 06:09:00",5.8,4.8,1.2,0.0,0,1016.0,2,5,4.1,93
"2020-12-24 06:10:00",5.8,4.8,1.2,0.0,0,1016.1,1,3,"",93
"2020-12-24 06:11:00",5.7,4.7,1.2,0.0,0,1016.1,3,5,3.9,93
"2020-12-24 06:12:00",5.7,4.7,1.2,0.0,0,1016.1,2,3,"",93
"2020-12-24 06:13:00",5.7,4.7,1.2,0.0,0,1016.2,2,5,3.9,93
"2020-12-24 06:14:00",5.7,4.7,1.2,0.0,0,1016.1,2,5,3.9,93
"2020-12-24 06:15:00",5.7,4.7,1.2,0.0,0,1016.2,3,7,3.2,93
"2020-12-24 06:16:00",5.7,4.7,1.2,0.0,0,1016.2,3,5,3.9,93
"2020-12-24 06:17:00",5.7,4.7,1.2,0.0,0,1016.3,2,5,3.9,93
"2020-12-24 06:18:00",5.7,4.7,1.2,0.0,0,1016.4,3,6,3.4,93
"2020-12-24 06:19:00",5.6,4.6,1.2,0.0,0,1016.4,2,4,4.3,93
"2020-12-24 06:20:00",5.6,4.6,1.2,0.0,0,1016.4,2,3,"",93
"2020-12-24 06:21:00",5.6,4.6,1.2,0.0,0,1016.3,2,4,4.3,93
"2020-12-24 06:22:00",5.6,4.6,1.2,0.0,0,1016.5,2,3,"",93
"2020-12-24 06:23:00",5.6,4.6,1.2,0.0,0,1016.5,2,4,4.3,93
"2020-12-24 06:24:00",5.6,4.6,1.2,0.0,0,1016.6,1,3,"",93
"2020-12-24 06:25:00",5.6,4.6,1.2,0.0,0,1016.5,3,5,3.8,93
"2020-12-24 06:26:00",5.6,4.6,1.2,0.0,0,1016.6,3,5,3.8,93
"2020-12-24 06:27:00",5.6,4.6,1.2,0.0,0,1016.5,2,6,3.4,93
"2020-12-24 06:28:00",5.6,4.6,1.2,0.0,0,1016.7,3,5,3.7,93
"2020-12-24 06:29:00",5.5,4.5,1.2,0.0,0,1016.7,4,6,3.3,93
"2020-12-24 06:30:00",5.5,4.5,1.2,0.0,0,1016.6,3,6,3.3,93
"2020-12-24 06:31:00",5.5,4.5,1.2,0.0,0,1016.6,1,3,"",93
"2020-12-24 06:32:00",5.5,4.5,1.2,0.0,0,1016.7,2,5,3.7,93
"2020-12-24 06:33:00",5.5,4.5,1.2,0.0,0,1016.8,1,3,"",93
"2020-12-24 06:34:00",5.5,4.5,1.2,0.0,0,1016.8,1,3,"",93
"2020-12-24 06:35:00",5.4,4.4,1.2,0.0,0,1016.8,2,5,3.7,93
"2020-12-24 06:36:00",5.5,4.5,1.2,0.0,0,1016.8,1,3,"",93
"2020-12-24 06:37:00",5.5,4.5,1.2,0.0,0,1016.9,2,7,3.0,93
"2020-12-24 06:38:00",5.4,4.4,1.2,0.0,0,1016.9,3,5,3.7,93
"2020-12-24 06:39:00",5.4,4.4,1.2,0.0,0,1017.0,1,3,"",93
"2020-12-24 06:40:00",5.4,4.4,1.2,0.0,0,1017.0,2,4,4.0,93
"2020-12-24 06:41:00",5.4,4.4,1.2,0.0,0,1016.9,2,4,4.0,93
"2020-12-24 06:42:00",5.4,4.4,1.2,0.0,0,1016.9,2,3,"",93
"2020-12-24 06:43:00",5.4,4.4,1.2,0.0,0,1016.9,2,3,"",93
"2020-12-24 06:44:00",5.4,4.4,1.2,0.0,0,1017.0,3,5,3.6,93
"2020-12-24 06:45:00",5.4,4.4,1.2,0.0,0,1017.0,1,3,"",93
"2020-12-24 06:46:00",5.4,4.4,1.2,0.0,0,1017.0,2,4,4.0,93
"2020-12-24 06:47:00",5.4,4.4,1.2,0.0,0,1017.0,1,2,"",93
"2020-12-24 06:48:00",5.4,4.4,1.2,0.0,0,1017.1,1,4,4.0,93
"2020-12-24 06:49:00",5.4,4.4,1.2,0.0,0,1017.0,1,2,"",93
"2020-12-24 06:50:00",5.4,4.4,1.2,0.0,0,1017.1,2,3,"",93
"2020-12-24 06:51:00",5.4,4.4,1.2,0.0,0,1017.2,2,3,"",93
"2020-12-24 06:52:00",5.4,4.4,1.2,0.0,0,1017.2,1,3,"",93